Location: *
(50.2903°S, 172.5375°W)
Time: 22:01:10
(UTC+00:00)

Resurs 1-4 Rocket - Pass Details

Date: 27 February 2020
Orbit: 800 x 814 km, 98.6° (Epoch: 05 April)

Event Time Altitude Azimuth Distance (km) Brightness Sun altitude
Exits shadow 12:05:29 59° 190° (S) 945 2.6 -31.1°
Drops below altitude 10° 12:09:46 10° 194° (SSW) 2,420 5.3 -31.0°
Sets 12:12:07 0° 194° (SSW) 3,356 6.3 -30.9°
